Location: DARK SKY Beskydy - Park tmavé oblohy, www.darkskybeskydy.cz
(49.4926°N, 18.5016°E)
Time: 02:19:09
(UTC+02:00)

TIGRISAT - Pass Details

Date: 12 August 2024
Orbit: 591 x 668 km, 97.7° (Epoch: 14 September)

Event Time Altitude Azimuth Distance (km) Brightness Sun altitude
Rises 02:35:43 0° 105° (ESE) 2,908 ? -21.6°
Reaches altitude 10° 02:39:57 10° 64° (ENE) 1,984 ? -21.3°
Maximum altitude 02:40:39 10° 55° (NE) 1,959 ? -21.2°
Drops below altitude 10° 02:41:20 10° 46° (NE) 1,979 ? -21.2°
Sets 02:45:31 0° 5° (N) 2,870 ? -20.9°
